sat.trackr.live / text

‹ back to catalog

HULIANWANG DIGUI-10

NORAD 62332 · 2024-240K

PAYLOAD ACTIVE UNKNOWN

§ Identity

Operator
Country
PRC
Launch date
2024-12-16
Launch site
WSC
Launch vehicle
Mass (kg)
RCS (m²)

External: N2YO · Heavens-Above · Gunter

§ Orbital elements

Epoch: 2026-05-25T04:44:49.303104Z

Period
108.73 min
Inclination
86.5032°
Eccentricity
0.0001391
Mean motion
13.24408140 rev/d
Perigee alt
1,166.9 km
Apogee alt
1,169.0 km
Semi-major
7,546.1 km
B*
9.4029e-5
RAAN
351.1678°
Arg perigee
81.4715°
Mean anomaly
278.6577°
Rev number
6,959

§ Raw data

HULIANWANG DIGUI-101 62332U 24240K   26145.19779286  .00000055  00000+0  94029-4 0  99922 62332  86.5032 351.1678 0001391  81.4715 278.6577 13.24408140 69591

JSON: /api/v1/satellites/62332 · /tle

For live sub-satellite position, see the globe view (requires WebGL).

§ Visibility from observer

Set your observer location to see the next 7 days of passes ≥ 10°. The values pass through the URL so the page stays shareable.

No JS? Fill the form by hand. The geolocation button needs JavaScript.